Change the Weather History Date:

Tuesday, January 21, 2014

  Actual Average Record
Temperature  
Mean Temperature 38 °F -  
Max Temperature 48 °F 48 °F 73 °F (1933)
Min Temperature 28 °F 27 °F -8 °F (1985)
Degree Days  
Heating Degree Days 28    
Moisture  
Dew Point 29 °F    
Average Humidity 75    
Maximum Humidity 99    
Minimum Humidity 49    
Precipitation  
Precipitation 0.11 in - - ()
Sea Level Pressure  
Sea Level Pressure 29.71 in    
Wind  
Wind Speed 2 mph (NNW)    
Max Wind Speed 14 mph    
Max Gust Speed 20 mph    
Visibility 10 miles    
Events Rain , Snow    
Averages and records for this station are not official NWS values.
T = Trace of Precipitation, MM = Missing Value Source: NWS Daily Summary

Daily Weather History Graph

Daily Weather History Graph

Search for Another Location

Airport or City:

Trip Planner

Search our weather history database for the weather conditions in past years. The results will help you decide how hot, cold, wet, or windy it might be!

Date:

Astronomy

Jan. 21, 2014 Rise Set
Actual Time 7:26 AM EST 5:35 PM EST
Civil Twilight 6:58 AM EST 6:03 PM EST
Nautical Twilight 6:27 AM EST 6:34 PM EST
Astronomical Twilight 5:57 AM EST 7:04 PM EST
Moon 10:54 PM EST (1/21) 10:07 AM EST (1/21)
Length of Visible Light 11h 04m
Length of Day
10h 09m
Waning Gibbous, 75% of the Moon is Illuminated
Jan 21
Waning Gibbous
Jan 24
Last Quarter
Jan 30
New
Feb 6
First Quarter
Feb 14
Full

Hourly Weather History & Observations

Time (EST) Temp. Windchill Dew Point Humidity Pressure Visibility Wind Dir Wind Speed Gust Speed Precip Events Conditions
12:15 AM 37.9 °F - 27.1 °F 65% 29.83 in 10.0 mi Calm Calm - N/A   Clear
12:35 AM 37.8 °F - 27.1 °F 66% 29.82 in 10.0 mi Calm Calm - N/A   Clear
12:55 AM 37.0 °F - 27.0 °F 67% 29.81 in 10.0 mi Calm Calm - N/A   Clear
1:15 AM 36.7 °F - 27.3 °F 69% 29.80 in 10.0 mi Calm Calm - N/A   Clear
1:35 AM 36.0 °F - 27.5 °F 71% 29.79 in 10.0 mi Calm Calm - N/A   Clear
1:55 AM 35.8 °F - 27.5 °F 72% 29.79 in 10.0 mi Calm Calm - N/A   Clear
2:15 AM 35.6 °F - 26.8 °F 70% 29.79 in 10.0 mi Calm Calm - N/A   Clear
2:35 AM 34.0 °F - 27.5 °F 77% 29.78 in 10.0 mi Calm Calm - N/A   Clear
2:55 AM 33.3 °F - 27.0 °F 78% 29.78 in 10.0 mi Calm Calm - N/A   Clear
3:15 AM 33.3 °F - 27.9 °F 81% 29.77 in 10.0 mi Calm Calm - N/A   Clear
3:35 AM 32.5 °F - 27.5 °F 82% 29.77 in 10.0 mi Calm Calm - N/A   Clear
3:55 AM 32.0 °F - 26.8 °F 81% 29.77 in 10.0 mi Calm Calm - N/A   Clear
4:15 AM 31.5 °F - 26.6 °F 82% 29.76 in 10.0 mi Calm Calm - N/A   Clear
4:35 AM 30.6 °F - 26.1 °F 83% 29.76 in 10.0 mi Calm Calm - N/A   Clear
4:55 AM 30.7 °F - 26.2 °F 83% 29.75 in 10.0 mi Calm Calm - N/A   Clear
5:15 AM 30.6 °F - 25.9 °F 83% 29.74 in 10.0 mi Calm Calm - N/A   Clear
5:35 AM 30.7 °F - 26.2 °F 83% 29.72 in 10.0 mi Calm Calm - N/A   Clear
5:55 AM 31.1 °F - 26.1 °F 82% 29.72 in 10.0 mi Calm Calm - N/A   Clear
6:15 AM 30.7 °F - 26.4 °F 84% 29.72 in 10.0 mi Calm Calm - N/A   Clear
6:35 AM 30.6 °F - 26.2 °F 84% 29.72 in 10.0 mi Calm Calm - N/A   Clear
6:55 AM 29.8 °F - 25.9 °F 85% 29.71 in 10.0 mi Calm Calm - N/A   Clear
7:15 AM 30.9 °F - 26.6 °F 84% 29.70 in 10.0 mi Calm Calm - N/A   Clear
7:35 AM 28.8 °F - 25.7 °F 88% 29.72 in 10.0 mi Calm Calm - N/A   Clear
7:55 AM 29.3 °F - 26.1 °F 88% 29.71 in 10.0 mi Calm Calm - N/A   Clear
8:15 AM 30.0 °F - 26.1 °F 85% 29.70 in 10.0 mi Calm Calm - N/A   Clear
8:35 AM 30.9 °F - 26.6 °F 84% 29.71 in 10.0 mi Calm Calm - N/A   Clear
8:55 AM 32.0 °F - 27.3 °F 83% 29.70 in 10.0 mi Calm Calm - N/A   Clear
9:15 AM 33.8 °F - 27.9 °F 79% 29.69 in 10.0 mi Calm Calm - N/A   Clear
9:35 AM 37.2 °F 33.6 °F 28.4 °F 70% 29.68 in 10.0 mi North 4.6 mph - N/A   Scattered Clouds
9:55 AM 37.8 °F 34.2 °F 28.2 °F 68% 29.68 in 10.0 mi NNE 4.6 mph - N/A   Mostly Cloudy
10:15 AM 38.3 °F - 28.2 °F 67% 29.68 in 10.0 mi Calm Calm - N/A   Scattered Clouds
10:35 AM 39.4 °F - 28.6 °F 65% 29.68 in 10.0 mi Calm Calm - N/A   Clear
10:55 AM 41.0 °F - 28.6 °F 61% 29.66 in 10.0 mi Calm Calm - N/A   Clear
11:15 AM 41.7 °F 39.8 °F 28.6 °F 60% 29.65 in 10.0 mi NNW 3.5 mph - N/A   Clear
11:35 AM 42.8 °F - 28.8 °F 58% 29.64 in 10.0 mi Calm Calm - N/A   Clear
11:55 AM 43.7 °F 41.1 °F 29.3 °F 57% 29.62 in 10.0 mi North 4.6 mph - N/A   Scattered Clouds
12:15 PM 44.6 °F 41.4 °F 29.3 °F 55% 29.62 in 10.0 mi WNW 5.8 mph - N/A   Mostly Cloudy
12:35 PM 44.6 °F 42.2 °F 29.3 °F 55% 29.60 in 10.0 mi NW 4.6 mph - N/A   Mostly Cloudy
12:55 PM 44.6 °F 43.1 °F 29.8 °F 56% 29.59 in 10.0 mi North 3.5 mph - N/A   Mostly Cloudy
1:15 PM 45.1 °F 42.8 °F 29.8 °F 55% 29.59 in 10.0 mi North 4.6 mph - N/A   Mostly Cloudy
1:35 PM 45.7 °F - 29.7 °F 54% 29.58 in 10.0 mi Calm Calm - N/A   Scattered Clouds
1:55 PM 46.2 °F - 29.5 °F 52% 29.57 in 10.0 mi Calm Calm - N/A   Scattered Clouds
2:15 PM 47.1 °F - 29.8 °F 51% 29.57 in 10.0 mi WNW 4.6 mph - N/A   Scattered Clouds
2:35 PM 47.3 °F - 30.0 °F 51% 29.57 in 10.0 mi North 9.2 mph - N/A   Mostly Cloudy
2:55 PM 47.8 °F - 29.5 °F 49% 29.58 in 10.0 mi NW 8.1 mph - N/A   Mostly Cloudy
3:15 PM 47.3 °F - 29.3 °F 50% 29.58 in 10.0 mi North 5.8 mph - N/A   Mostly Cloudy
3:35 PM 46.4 °F - 28.9 °F 51% 29.58 in 10.0 mi Calm Calm - N/A   Overcast
3:55 PM 46.4 °F - 29.1 °F 51% 29.59 in 10.0 mi Calm Calm - N/A   Mostly Cloudy
4:15 PM 46.0 °F 43.9 °F 29.3 °F 52% 29.59 in 10.0 mi NNW 4.6 mph - N/A   Mostly Cloudy
4:35 PM 45.0 °F 39.7 °F 32.2 °F 61% 29.61 in 10.0 mi NW 10.4 mph - N/A Rain Light Rain
4:55 PM 43.2 °F 39.7 °F 34.2 °F 71% 29.62 in 10.0 mi NNW 5.8 mph - N/A Rain Light Rain
5:15 PM 42.4 °F 39.6 °F 35.1 °F 75% 29.63 in 10.0 mi NNW 4.6 mph - N/A Rain Light Rain
5:35 PM 41.0 °F 37.1 °F 36.3 °F 83% 29.64 in 10.0 mi North 5.8 mph - N/A   Overcast
5:55 PM 40.1 °F 38.0 °F 36.5 °F 87% 29.66 in 10.0 mi WNW 3.5 mph - N/A Rain Rain
6:15 PM 37.0 °F 30.4 °F 35.1 °F 93% 29.70 in 3.0 mi NNW 9.2 mph 19.6 mph 0.05 in Rain Rain
6:35 PM 36.1 °F 29.9 °F 34.7 °F 94% 29.71 in 7.0 mi NW 8.1 mph - 0.07 in Rain Light Rain
6:55 PM 36.0 °F 30.3 °F 34.3 °F 94% 29.71 in 7.0 mi NNW 6.9 mph - 0.08 in Rain Rain
7:15 PM 35.1 °F 27.9 °F 34.2 °F 97% 29.73 in 5.0 mi NNW 9.2 mph - 0.02 in Rain Rain
7:35 PM 34.7 °F 26.9 °F 33.8 °F 97% 29.74 in 5.0 mi North 10.4 mph - 0.03 in Rain Rain
7:55 PM 33.8 °F 27.0 °F 33.4 °F 99% 29.74 in 7.0 mi NNW 8.1 mph - 0.03 in Rain Light Rain
8:15 PM 33.4 °F 25.9 °F 32.9 °F 98% 29.76 in 10.0 mi North 9.2 mph - N/A   Light Drizzle
8:35 PM 33.1 °F 24.4 °F 31.8 °F 95% 29.77 in 10.0 mi North 11.5 mph 17.3 mph N/A   Overcast
8:55 PM 32.9 °F 23.2 °F 30.7 °F 92% 29.78 in 10.0 mi North 13.8 mph 17.3 mph N/A   Overcast
9:15 PM 32.4 °F 24.0 °F 30.0 °F 91% 29.79 in 10.0 mi North 10.4 mph - N/A   Overcast
9:35 PM 32.2 °F 23.2 °F 27.5 °F 83% 29.80 in 10.0 mi North 11.5 mph 18.4 mph N/A   Overcast
9:55 PM 32.0 °F - 26.4 °F 80% 29.81 in 10.0 mi Calm Calm - N/A   Overcast
10:15 PM 31.8 °F - 25.9 °F 79% 29.82 in 10.0 mi Calm Calm - N/A   Overcast
10:35 PM 31.1 °F - 25.0 °F 78% 29.84 in 10.0 mi Calm Calm - N/A   Overcast
10:55 PM 30.7 °F - 24.8 °F 79% 29.85 in 10.0 mi Calm Calm - N/A   Overcast
11:15 PM 29.8 °F - 23.2 °F 76% 29.85 in 10.0 mi Calm Calm - N/A Snow Light Snow
11:35 PM 29.3 °F - 23.5 °F 79% 29.86 in 10.0 mi Calm Calm - N/A Snow Light Snow
11:55 PM 29.3 °F - 23.0 °F 77% 29.86 in 10.0 mi Calm Calm - N/A Snow Light Snow